Tracking 19832 objects as of 24-Aug-2019
HD Live streaming from Space Station
objects crossing your sky now

COSMOS 489

Track COSMOS 489 now!
10-day predictions
COSMOS 489 is classified as:


NORAD ID: 6019
Int'l Code: 1972-035A
Perigee: 966.9 km
Apogee: 1,004.1 km
Inclination: 74.0 °
Period: 104.7 minutes
Semi major axis: 7356 km
RCS: 1.7983 m2 (large)
Launch date: May 6, 1972
Source: Commonwealth of Independent States (former USSR) (CIS)
Launch site: PLESETSK MISSILE AND SPACE COMPLEX (PKMTR)
aabbcc
Your satellite tracking list
Your tracking list is empty




NASA's NSSDC Master Catalog

Two Line Element Set (TLE):
1  6019U 72035A   19235.90042047 -.00000019 +00000-0 +42779-5 0  9994
2  6019 074.0211 147.2290 0025271 264.6682 161.0058 13.75929365374486
Source of the keplerian elements: AFSPC